Regional Weather Roundup
Issued by NWS State College, PA

Home | Current Version | Previous Version | Text Only | Print | Product List | Glossary On
Versions: 1 2 3 4 5 6 7 8 9 10 11 12 13 14 15 16 17 18 19 20 21 22 23 24 25 26 27 28 29 30 31 32 33 34 35 36 37 38 39 40 41 42 43 44 45 46 47 48 49 50
000
ASUS41 KCTP 011310
RWRCTP

REGIONAL WEATHER ROUNDUP
NATIONAL WEATHER SERVICE STATE COLLEGE PA
800 AM EST SUN MAR 01 2015

Note: "fair" indicates few or no clouds below 12,000 feet with no
significant weather and/or obstructions to visibility.

* = STATION THAT DOES NOT REPORT PRECIPITATION /E.G. RAIN...SNOW...ETC/
    THUNDER OR FOG.

PAZ002>004-007>009-013>016-020>023-029>032-011400-
WESTERN PENNSYLVANIA

CITY           SKY/WX    TMP DP  RH WIND       PRES   REMARKS
ERIE           LGT SNOW  22  17  81 CALM      30.40F
MEADVILLE      LGT SNOW  19  16  88 VRB3      30.35F
FRANKLIN*      CLOUDY    19  16  86 S5        30.36F WCI  13
NEW CASTLE     LGT SNOW  21  19  92 CALM      30.39F VSB 1
BEAVER COUNTY  NOT AVBL
BUTLER*        CLOUDY    23  21  93 CALM      30.38F VSB 1
PITTSBURGH INT LGT SNOW  26  24  92 S7        30.37S VSB 1
PITTSBURGH     SNOW      27  23  85 S9        30.37S VSB 1/2
INDIANA*       FOG       28  27  93 S8        30.40F VSB 3/4
LATROBE        LGT SNOW  32  32 100 SW9       30.40F
WASHINGTON CO* CLOUDY    28  27  93 S7        30.40S
$$

PAZ004>006-010>012-017>019-024>028-033>037-041-042-045-046-049>053-011400-
CENTRAL PENNSYLVANIA

CITY           SKY/WX    TMP DP  RH WIND       PRES   REMARKS
BRADFORD       LGT SNOW  17  12  80 SE6       30.32F WCI   9
DUBOIS         SNOW      19  16  88 E6        30.34F VSB 1/4 WCI  11
CLEARFIELD     LGT SNOW  17  14  88 NE5       30.41F VSB 3/4 WCI  10
JOHNSTOWN      LGT SNOW  19  17  92 SW6       30.34S VSB 1   WCI  11
ALTOONA        LGT SNOW  21  16  81 S9        30.44F WCI  11
STATE COLLEGE  LGT SNOW  19  16  86 SW6       30.46F FOG     WCI  11
WILLIAMSPORT   LGT SNOW  18  13  80 E6        30.54F WCI  10
SELINSGROVE    LGT SNOW  18  15  88 CALM      30.57F FOG
FT INDIANTOWN  LGT SNOW  18  14  86 CALM      30.60S
CAPITAL CITY   LGT SNOW  21  16  81 SE3       30.60F
HARRISBURG     LGT SNOW  21  16  81 SE5       30.60F VSB 1   WCI  15
YORK           LGT SNOW  21  16  81 VRB3      30.59S VSB 3/4
$$

PAZ038>040-043-044-047-048-054-055-060>062-067>071-011400-
EASTERN PENNSYLVANIA

CITY           SKY/WX    TMP DP  RH WIND       PRES   REMARKS
SCRANTON       FOG       15  11  83 CALM      30.53F VSB 3/4
MOUNT POCONO   LGT SNOW  15  10  80 S5        30.46S WCI   8
ALLENTOWN      CLOUDY    19   4  51 E3        30.61F
QUAKERTOWN*    PTSUNNY   18   9  68 CALM      30.62F
READING        CLOUDY    20   9  62 CALM      30.61F
LANCASTER      LGT SNOW  22  14  71 SE3       30.60F
COATESVILLE    MOSUNNY   23  10  58 S5        30.61F
POTTSTOWN      CLOUDY    20   8  60 CALM      30.65S
BLUE BELL      PTSUNNY   27  12  54 CALM      30.63S
DOYLESTOWN     CLOUDY    20  11  68 S3        30.61F
WILLOW GROVE   NOT AVBL
NORTH PHILA    CLOUDY    25  10  53 SE5       30.67F
PHILADELPHIA   CLOUDY    25  12  58 S6        30.69R
$$



USA.gov is the U.S. government's official web portal to all federal, state and local government web resources and services.